This demonstration page uses our WeatherBlox Daily Observations layout. Learn more.

Left ArrowRight Arrow

44.8408, -93.29828

Hourly Observations for August 30, 2019

Temp ( °F °C ) Dew Point ( °F °C ) Humidity (%) Winds ( mph kmh ) Pressure ( in mb ) Visibility ( mi km ) Precip ( " mm )
12:53 am 00:53 Clear 58 14.4 50 10 75 75 NW 9 15 30.04 1017 10 16 0.00 0.00
1:53 am 01:53 Clear 58 14.4 49 9.4 72 72 WNW 3 6 30.05 1018 10 16 0.00 0.00
2:53 am 02:53 Clear 58 14.4 49 9.4 72 72 W 3 6 30.06 1018 10 16 0.00 0.00
3:53 am 03:53 Clear 57 13.9 50 10 78 78 SSW 3 6 30.08 1019 10 16 0.00 0.00
4:53 am 04:53 Clear 56 13.3 50 10 81 81 SSW 3 6 30.10 1019 10 16 0.00 0.00
5:53 am 05:53 Mostly Clear 54 12.2 50 10 87 87 WNW 3 6 30.12 1020 10 16 0.00 0.00
6:53 am 06:53 Mostly Sunny 54 12.2 50 10 87 87 Calm 30.15 1021 10 16 0.00 0.00
7:53 am 07:53 Mostly Sunny 57 13.9 49 9.4 74 74 WSW 3 6 30.16 1021 10 16 0.00 0.00
8:53 am 08:53 Mostly Sunny 61 16.1 50 10 67 67 Calm 30.17 1022 10 16 0.00 0.00
9:53 am 09:53 Mostly Sunny 64 17.8 50 10 60 60 Calm 30.18 1022 10 16 0.00 0.00
10:53 am 10:53 Mostly Sunny 68 20 48 8.9 49 49 Calm 30.18 1022 10 16 0.00 0.00
11:53 am 11:53 Mostly Sunny 70 21.1 45 7.2 41 41 NW 9 15 30.19 1022 10 16 0.00 0.00
12:53 pm 12:53 Mostly Sunny 71 21.7 45 7.2 39 39 NNW 13 20 30.18 1022 10 16 0.00 0.00
1:53 pm 13:53 Mostly Sunny 73 22.8 46 7.8 38 38 WNW 10 17 30.17 1022 10 16 0.00 0.00
2:53 pm 14:53 Mostly Cloudy 72 22.2 47 8.3 41 41 NW 13 20 30.16 1021 10 16 0.00 0.00
3:53 pm 15:53 Mostly Cloudy 75 23.9 48 8.9 39 39 W 10 17 30.16 1022 10 16 0.00 0.00
4:53 pm 16:53 Mostly Cloudy 74 23.3 46 7.8 37 37 VRB 7 11 30.17 1022 10 16 0.00 0.00
5:53 pm 17:53 Mostly Cloudy 73 22.8 46 7.8 38 38 W 10 17 30.17 1022 10 16 0.00 0.00
6:53 pm 18:53 Partly Cloudy 70 21.1 47 8.3 44 44 NW 7 11 30.18 1022 10 16 0.00 0.00
7:53 pm 19:53 Partly Cloudy 69 20.6 46 7.8 44 44 VRB 5 7 30.18 1022 10 16 0.00 0.00
8:53 pm 20:53 Mostly Clear 66 18.9 47 8.3 50 50 NE 6 9 30.20 1023 10 16 0.00 0.00
9:53 pm 21:53 Mostly Clear 64 17.8 48 8.9 56 56 ESE 3 6 30.21 1023 10 16 0.00 0.00
10:53 pm 22:53 Mostly Clear 63 17.2 49 9.4 60 60 NE 5 7 30.24 1024 10 16 0.00 0.00
11:53 pm 23:53 Partly Cloudy 61 16.1 49 9.4 65 65 E 5 7 30.23 1024 10 16 0.00 0.00

Powered by AerisWeather